Location: Domont
(49.0278°N, 2.3264°E)
Time: 12:06:55
(UTC+00:00)

UWE-3 - Pass Details

Date: 05 July 2022
Orbit: 583 x 677 km, 97.7° (Epoch: 14 August)

Event Time Altitude Azimuth Distance (km) Brightness Sun altitude
Rises 01:57:38 0° 31° (NNE) 2,914 ? -13.2°
Reaches altitude 10° 02:00:55 10° 58° (ENE) 2,023 ? -12.9°
Maximum altitude 02:03:07 14° 88° (E) 1,806 ? -12.7°
Drops below altitude 10° 02:05:20 10° 118° (ESE) 2,044 ? -12.5°
Sets 02:08:41 0° 145° (SE) 2,969 ? -12.3°
